Regional Weather Roundup
Issued by NWS

Home | Current Version | Previous Version | Text Only | Print | Product List | Glossary On
Versions: 1 2 3 4 5 6 7 8 9 10 11 12 13 14 15 16 17 18 19 20 21 22 23 24 25 26 27 28 29 30 31 32 33 34 35 36 37 38 39 40 41 42 43 44 45 46 47 48 49 50
000
ASUS43 KLOT 280301
RWRIL

ILLINOIS REGIONAL WEATHER ROUNDUP
NATIONAL WEATHER SERVICE CHICAGO/ROMEOVILLE IL
1000 PM CDT THU AUG 27 2015

NOTE: "FAIR" INDICATES FEW OR NO CLOUDS BELOW 12,000 FEET WITH NO
SIGNIFICANT WEATHER AND/OR OBSTRUCTIONS TO VISIBILITY.

* THESE STATIONS ARE NOT UNDER NWS QUALITY CONTROL. THEY ALSO MAY NOT
  REPORT WEATHER SUCH AS PRECIPITATION OR FOG.

ILZ001-002-007-009-015-016-024-280400-
NORTHWEST ILLINOIS

CITY           SKY/WX    TMP DP  RH WIND       PRES   REMARKS
MOLINE         CLEAR     62  57  83 SE5       30.08F
STERLING*      CLEAR     59  55  88 E3        30.11R
$$

ILZ003-004-008-010-011-017-018-280400-
NORTH CENTRAL ILLINOIS

CITY           SKY/WX    TMP DP  RH WIND       PRES   REMARKS
ROCKFORD       PTCLDY    60  55  83 CALM      30.15R
FREEPORT*      PTCLDY    58  56  94 SE6       30.14F
$$

ILZ005-006-012>014-019>023-280400-
NORTHEAST ILLINOIS

CITY           SKY/WX    TMP DP  RH WIND       PRES   REMARKS
CHICAGO-OHARE  MOCLDY    65  56  72 E3        30.14R
CHICAGO-MIDWAY PTCLDY    67  57  70 E5        30.13R
AURORA         PTCLDY    57  54  89 CALM      30.14R FOG
LANSING*       CLEAR     62  56  80 E6        30.13S
WAUKEGAN       MOCLDY    58  55  90 S3        30.14R
DUPAGE AIRPORT PTCLDY    61  55  81 N3        30.14R
WHEELING       MOCLDY    62  55  77 CALM      30.15S
NORTHERLY ISL    N/A     65  59  81 E6          N/A
$$

LMZ740>746-280400-
SOUTHERN LAKE MICHIGAN

STATION/POSITION SKY/WX   TEMP    WIND        PRES    VSBY  WAVE
                          AIR SEA DIR/SP/G                  HT/PER
                          (F)     (DEG/KT/KT) (MB)    (MI)  (FT/S)
SOUTHERN BUOY              66 69  140/  6/  8 1020.7F         0
WILMETTE HARBOR            65 63  280/  4/  6   N/A           1
HARRISON CRIB              67     100/  9/ 10   N/A
BURNHAM HARBOR             64      90/  5       N/A
CALUMET HARBOR             67      80/  4/  6   N/A
BURNS HARBOR               65     100/  8/  9 1021.0R
MICHIGAN CITY              64      60/  6/  7   N/A
MICHIGAN CITY 6N           67 71  110/  6/  8   N/A           1
ST. JOSEPH                 66 71  120/  6/  8   N/A           0
$$

ILZ025>027-034>036-040-047-049-050-058-095>099-280400-
WEST-CENTRAL ILLINOIS

CITY           SKY/WX    TMP DP  RH WIND       PRES   REMARKS
QUINCY         CLEAR     65  59  81 SE7       30.08F
MACOMB*        CLEAR     59  58  96 CALM      30.12S
$$

ILZ028>032-037-038-041>044-048-051>054-059>061-280400-
CENTRAL ILLINOIS

CITY           SKY/WX    TMP DP  RH WIND       PRES   REMARKS
DECATUR        CLEAR     62  57  83 CALM      30.11R
PEORIA         CLEAR     65  58  78 CALM      30.12R
SPRINGFIELD    CLEAR     62  58  86 N3        30.11R
TAYLORVILLE    NOT AVBL
$$

ILZ033-039-045-046-055>057-062-063-280400-
EAST-CENTRAL ILLINOIS

CITY           SKY/WX    TMP DP  RH WIND       PRES   REMARKS
CHAMPAIGN      CLEAR     64  60  87 CALM      30.11R
MATTOON        CLEAR     64  60  87 CALM      30.10R FOG
$$

ILZ079-100>102-280400-
SOUTHWEST ILLINOIS

CITY           SKY/WX    TMP DP  RH WIND       PRES   REMARKS
ALTON          MOCLDY    61  59  94 CALM      30.09R
CAHOKIA*       CLEAR     66  60  81 CALM      30.08S
$$

ILZ064>066-069>071-074>076-080>082-084>086-088>090-092>094-280400-
SOUTH-CENTRAL ILLINOIS

CITY           SKY/WX    TMP DP  RH WIND       PRES   REMARKS
CARBONDALE     CLEAR     62  60  93 CALM      30.09S
MT. VERNON     CLEAR     61  55  82 CALM      30.10F
SALEM*         CLEAR     62  59  91 CALM      30.10S
$$

ILZ067-068-072-073-078-083-087-091-280400-
SOUTHEAST ILLINOIS

CITY           SKY/WX    TMP DP  RH WIND       PRES   REMARKS
LAWRENCEVILLE  CLEAR     63  60  90 SE3       30.11R
FLORA*         CLEAR     61  58  91 CALM      30.10F
ROBINSON*      CLEAR     60  58  92 CALM      30.11F
$$

ABBREVIATIONS USED IN REMARKS
   TC - TEMPERATURE IN CELSIUS
  WCI - WIND CHILL INDEX
   HX - HEAT INDEX
  VSB - VISIBILITY
$$



USA.gov is the U.S. government's official web portal to all federal, state and local government web resources and services.